When you browse on this site, cookies collect data to enhance your experience and personalize the content and advertising you see.
Visit our Privacy Policy to learn more. By continuing to use the site, you agree to this use of cookies and data.
  • In Spain
  • List of Countries
  • For 7 days
  • Water Temperature
  • Weather Map
  • Weather Widgets
  • user-avatar
    Login

    Hourly Weather Tshlykovo

    Today, 23 February, Sunday

    Time Temperature Precipitation Wind Pressure Humidity
    00:00 -4°C° 0 mm 8 mps 747 mmHg 84%
    01:00 -4°C° 0 mm 8 mps 746 mmHg 84%
    02:00 -4°C° 0 mm 8 mps 745 mmHg 84%
    03:00 -4°C° 0.1 mm 9 mps 743 mmHg 87%
    04:00 -4°C° 0.1 mm 9 mps 742 mmHg 89%
    05:00 -4°C° 0.1 mm 9 mps 741 mmHg 92%
    06:00 -4°C° 0.8 mm 9 mps 740 mmHg 93%
    07:00 -4°C° 0.8 mm 9 mps 739 mmHg 95%
    08:00 -4°C° 0.8 mm 9 mps 738 mmHg 96%
    09:00 -3°C° 0.4 mm 9 mps 737 mmHg 96%
    10:00 -2°C° 0.4 mm 8 mps 737 mmHg 97%
    11:00 -2°C° 0.4 mm 8 mps 736 mmHg 97%
    12:00 -1°C° 0.4 mm 7 mps 736 mmHg 96%
    13:00 -1°C° 0.4 mm 6 mps 735 mmHg 95%
    14:00 0°C° 0.4 mm 5 mps 735 mmHg 94%
    15:00 0°C° 0.2 mm 5 mps 735 mmHg 92%
    16:00 0°C° 0.2 mm 5 mps 735 mmHg 89%
    17:00 -1°C° 0.2 mm 5 mps 734 mmHg 87%
    18:00 -1°C° 0 mm 4 mps 735 mmHg 87%
    19:00 -2°C° 0 mm 4 mps 735 mmHg 87%
    20:00 -2°C° 0 mm 4 mps 735 mmHg 87%
    21:00 -2°C° 0 mm 4 mps 735 mmHg 87%
    22:00 -2°C° 0 mm 4 mps 734 mmHg 87%
    23:00 -2°C° 0 mm 4 mps 734 mmHg 87%

    Tomorrow, 24 February, Monday

    Time Temperature Precipitation Wind Pressure Humidity
    00:00 -3°C° 0 mm 4 mps 734 mmHg 88%
    01:00 -3°C° 0 mm 4 mps 734 mmHg 89%
    02:00 -3°C° 0 mm 4 mps 734 mmHg 90%
    03:00 -3°C° 0 mm 4 mps 733 mmHg 91%
    04:00 -3°C° 0 mm 4 mps 733 mmHg 92%
    05:00 -4°C° 0 mm 3 mps 732 mmHg 94%
    06:00 -4°C° 0 mm 3 mps 732 mmHg 93%
    07:00 -2°C° 0 mm 3 mps 732 mmHg 93%
    08:00 -2°C° 0 mm 3 mps 732 mmHg 93%
    09:00 -1°C° 0 mm 2 mps 732 mmHg 92%
    10:00 -1°C° 0 mm 2 mps 732 mmHg 91%
    11:00 +1°C° 0 mm 2 mps 731 mmHg 90%
    12:00 +2°C° 0 mm 1 mps 731 mmHg 89%
    13:00 +2°C° 0 mm 1 mps 731 mmHg 87%
    14:00 +3°C° 0 mm 1 mps 731 mmHg 85%
    15:00 +2°C° 0 mm 1 mps 731 mmHg 87%
    16:00 +2°C° 0 mm 1 mps 732 mmHg 88%
    17:00 -1°C° 0 mm 2 mps 732 mmHg 89%
    18:00 -1°C° 0 mm 2 mps 732 mmHg 88%
    19:00 -1°C° 0 mm 3 mps 733 mmHg 87%
    20:00 -3°C° 0 mm 4 mps 734 mmHg 85%
    21:00 -4°C° 0 mm 5 mps 734 mmHg 84%
    22:00 -4°C° 0 mm 5 mps 734 mmHg 83%
    23:00 -4°C° 0 mm 6 mps 735 mmHg 81%

    Day after tomorrow, 25 February, Tuesday

    Time Temperature Precipitation Wind Pressure Humidity
    00:00 -4°C° 0 mm 6 mps 735 mmHg 79%
    01:00 -4°C° 0 mm 6 mps 736 mmHg 77%
    02:00 -5°C° 0 mm 5 mps 736 mmHg 75%
    03:00 -5°C° 0 mm 5 mps 737 mmHg 76%
    04:00 -5°C° 0 mm 5 mps 737 mmHg 76%
    05:00 -5°C° 0 mm 5 mps 738 mmHg 77%
    06:00 -5°C° 0 mm 5 mps 738 mmHg 77%
    07:00 -5°C° 0 mm 5 mps 739 mmHg 77%
    08:00 -5°C° 0 mm 5 mps 739 mmHg 77%
    09:00 -4°C° 0 mm 5 mps 739 mmHg 72%
    10:00 -2°C° 0 mm 5 mps 739 mmHg 67%
    11:00 -1°C° 0 mm 5 mps 739 mmHg 63%
    12:00 -1°C° 0 mm 5 mps 739 mmHg 61%
    13:00 0°C° 0 mm 4 mps 739 mmHg 60%
    14:00 0°C° 0 mm 4 mps 739 mmHg 59%
    15:00 -1°C° 0 mm 4 mps 739 mmHg 64%
    16:00 -1°C° 0 mm 3 mps 739 mmHg 69%
    17:00 -2°C° 0 mm 3 mps 739 mmHg 74%
    18:00 -2°C° 0 mm 3 mps 739 mmHg 76%
    19:00 -3°C° 0 mm 4 mps 739 mmHg 79%
    20:00 -3°C° 0 mm 4 mps 739 mmHg 82%
    21:00 -3°C° 0 mm 4 mps 738 mmHg 86%
    22:00 -4°C° 0 mm 5 mps 738 mmHg 90%
    23:00 -4°C° 0 mm 5 mps 738 mmHg 94%

    26 February, Wednesday

    Time Temperature Precipitation Wind Pressure Humidity
    00:00 -2°C° 0.1 mm 5 mps 737 mmHg 95%
    01:00 -2°C° 0.1 mm 5 mps 737 mmHg 96%
    02:00 -2°C° 0.1 mm 5 mps 736 mmHg 97%
    03:00 -1°C° 0.2 mm 5 mps 736 mmHg 97%
    04:00 -1°C° 0.2 mm 5 mps 735 mmHg 96%
    05:00 0°C° 0.2 mm 5 mps 735 mmHg 96%
    06:00 0°C° 0.1 mm 5 mps 735 mmHg 96%
    07:00 0°C° 0.1 mm 5 mps 734 mmHg 95%
    08:00 -1°C° 0.1 mm 6 mps 734 mmHg 95%
    09:00 -1°C° 0 mm 6 mps 734 mmHg 94%
    10:00 -1°C° 0 mm 6 mps 734 mmHg 93%
    11:00 +1°C° 0 mm 6 mps 734 mmHg 92%
    12:00 +1°C° 0.1 mm 6 mps 734 mmHg 93%
    13:00 +1°C° 0.1 mm 6 mps 734 mmHg 93%
    14:00 0°C° 0.1 mm 5 mps 734 mmHg 93%
    15:00 0°C° 0 mm 5 mps 735 mmHg 94%
    16:00 0°C° 0 mm 4 mps 735 mmHg 95%
    17:00 0°C° 0 mm 4 mps 735 mmHg 95%
    18:00 +1°C° 0 mm 3 mps 735 mmHg 96%
    19:00 +2°C° 0 mm 2 mps 736 mmHg 96%
    20:00 +1°C° 0 mm 2 mps 736 mmHg 96%
    21:00 +1°C° 0 mm 2 mps 736 mmHg 97%
    22:00 +1°C° 0 mm 2 mps 736 mmHg 97%
    23:00 +1°C° 0 mm 2 mps 736 mmHg 97%

    27 February, Thursday

    Time Temperature Precipitation Wind Pressure Humidity
    00:00 +1°C° 0.1 mm 2 mps 736 mmHg 97%
    01:00 0°C° 0.1 mm 3 mps 735 mmHg 97%
    02:00 +1°C° 0.1 mm 3 mps 735 mmHg 97%
    03:00 +1°C° 0.3 mm 3 mps 735 mmHg 97%
    04:00 +1°C° 0.3 mm 3 mps 735 mmHg 96%
    05:00 +1°C° 0.3 mm 3 mps 734 mmHg 96%
    06:00 -1°C° 0.2 mm 4 mps 734 mmHg 96%
    07:00 -1°C° 0.2 mm 4 mps 734 mmHg 96%
    08:00 -1°C° 0.2 mm 4 mps 734 mmHg 96%
    09:00 -1°C° 0.2 mm 4 mps 734 mmHg 96%
    10:00 0°C° 0.2 mm 4 mps 734 mmHg 96%
    11:00 0°C° 0.2 mm 4 mps 734 mmHg 96%
    12:00 0°C° 0.1 mm 4 mps 734 mmHg 96%
    13:00 +1°C° 0.1 mm 4 mps 734 mmHg 95%
    14:00 +1°C° 0.1 mm 4 mps 734 mmHg 94%
    15:00 +1°C° 0.3 mm 4 mps 734 mmHg 95%
    16:00 +1°C° 0.3 mm 4 mps 734 mmHg 95%
    17:00 +1°C° 0.3 mm 4 mps 734 mmHg 96%
    18:00 +1°C° 0.1 mm 4 mps 735 mmHg 96%
    19:00 +1°C° 0.1 mm 4 mps 735 mmHg 96%
    20:00 +1°C° 0.1 mm 4 mps 735 mmHg 96%
    21:00 +1°C° 0 mm 4 mps 736 mmHg 96%
    22:00 +1°C° 0 mm 4 mps 736 mmHg 96%
    23:00 +1°C° 0 mm 4 mps 737 mmHg 97%

    28 February, Friday

    Time Temperature Precipitation Wind Pressure Humidity
    00:00 +2°C° 0 mm 3 mps 737 mmHg 96%
    01:00 +2°C° 0 mm 3 mps 737 mmHg 95%
    02:00 +1°C° 0 mm 3 mps 738 mmHg 95%
    03:00 +1°C° 0 mm 3 mps 738 mmHg 95%
    04:00 +2°C° 0 mm 2 mps 739 mmHg 95%
    05:00 +1°C° 0 mm 2 mps 739 mmHg 95%
    06:00 +1°C° 0 mm 2 mps 739 mmHg 94%
    07:00 +1°C° 0 mm 2 mps 740 mmHg 93%
    08:00 +1°C° 0 mm 2 mps 740 mmHg 92%
    09:00 +1°C° 0 mm 2 mps 740 mmHg 89%
    10:00 +2°C° 0 mm 2 mps 741 mmHg 87%
    11:00 +2°C° 0 mm 2 mps 741 mmHg 85%
    12:00 +3°C° 0 mm 2 mps 741 mmHg 82%
    13:00 +3°C° 0 mm 2 mps 741 mmHg 79%
    14:00 +4°C° 0 mm 2 mps 742 mmHg 77%
    15:00 +4°C° 0 mm 1 mps 742 mmHg 78%
    16:00 +4°C° 0 mm 1 mps 742 mmHg 79%
    17:00 +4°C° 0 mm 1 mps 742 mmHg 80%
    18:00 +3°C° 0 mm 1 mps 743 mmHg 81%
    19:00 +2°C° 0 mm 1 mps 743 mmHg 82%
    20:00 +1°C° 0 mm 0 mps 743 mmHg 83%
    21:00 +2°C° 0 mm 1 mps 743 mmHg 84%
    22:00 +1°C° 0 mm 1 mps 743 mmHg 86%
    23:00 -1°C° 0 mm 2 mps 743 mmHg 88%
    Show more